ELEKTRO-L 5

Last updated on Sun Jun 21 2026 00:03:10 GMT+0000 (Coordinated Universal Time)

1 67756U 26028A 26171.04359116 -.00000103 00000+0 00000+0 0 9998 2 67756 0.2466 312.6978 0001749 180.6855 226.6194 1.00272291 1286
UTC large
Height (km)
Speed (km/s)
/
Latitude / Longitude
Inclination (degrees)
Orbital Period (minutes)
Azimuth
Elevation
Range (km)
Doppler Factor

Next 0 passes for location: London (51.5072 / 0.1276)

No passes found over London.
ELEKTRO-L 5